This demonstration page uses our WeatherBlox Daily Observations layout. Learn more.

Left ArrowRight Arrow

38.20091, -84.87328

Hourly Observations for June 30, 2021

Temp ( °F °C ) Dew Point ( °F °C ) Humidity (%) Winds ( mph kmh ) Pressure ( in mb ) Visibility ( mi km ) Precip ( " mm )
12:53 am 00:53 Mostly Clear 76 24.4 72 22.2 88 88 WSW 3 6 30.14 1021 10 16 0.00 0.00
1:53 am 01:53 Clear 77 25 72 22.2 85 85 Calm 30.13 1020 10 16 0.00 0.00
2:53 am 02:53 Clear 75 23.9 72 22.2 90 90 SW 7 11 30.12 1020 10 16 0.00 0.00
3:53 am 03:53 Clear 75 23.9 71 21.7 88 88 SSW 8 13 30.12 1020 10 16 0.00 0.00
4:53 am 04:53 Clear 73 22.8 71 21.7 94 94 SW 6 9 30.12 1020 10 16 0.00 0.00
5:53 am 05:53 Clear 73 22.8 70 21.1 90 90 SSW 8 13 30.12 1020 10 16 0.00 0.00
6:53 am 06:53 Sunny 72 22.2 70 21.1 94 94 SW 6 9 30.13 1020 10 16 0.00 0.00
7:53 am 07:53 Sunny 74 23.3 71 21.7 91 91 SW 9 15 30.13 1020 10 16 0.00 0.00
8:53 am 08:53 Sunny 79 26.1 71 21.7 77 77 SW 10 17 30.14 1021 10 16 0.00 0.00
9:53 am 09:53 Mostly Sunny 81 27.2 71 21.7 72 72 WSW 7 11 30.15 1021 10 16 0.00 0.00
10:51 am 10:51 Mostly Cloudy 82 28 70 21 66 66 W 5 7 30.14 1021 10 16 0.00 0.00
10:53 am 10:53 Mostly Cloudy 82 27.8 71 21.7 69 69 VRB 6 9 30.14 1021 10 16 0.00 0.00
11:34 am 11:34 Cloudy 82 27.8 71 21.7 69 69 W 5 7 30.13 1020 10 16 0.00 0.00
11:53 am 11:53 Cloudy 82 27.8 71 21.7 69 69 W 6 9 30.14 1021 10 16 0.00 0.00
12:53 pm 12:53 Cloudy 82 27.8 70 21.1 67 67 Calm 30.14 1021 10 16 0.00 0.00
1:53 pm 13:53 Cloudy 84 28.9 71 21.7 65 65 SSW 5 7 30.11 1020 10 16 0.00 0.00
2:01 pm 14:01 Cloudy 84 28.9 71 21.7 65 65 W 6 9 30.10 1019 10 16 0.00 0.00
2:53 pm 14:53 Partly Cloudy 86 30 72 22.2 63 63 SW 3 6 30.08 1019 10 16 0.00 0.00
3:53 pm 15:53 Mostly Cloudy 88 31.1 70 21.1 55 55 VRB 5 7 30.06 1018 10 16 0.00 0.00
4:53 pm 16:53 Mostly Sunny 87 30.6 69 20.6 55 55 WNW 5 7 30.05 1018 10 16 0.00 0.00
5:53 pm 17:53 Partly Cloudy 87 30.6 70 21.1 57 57 WSW 6 9 30.04 1017 10 16 0.00 0.00
6:53 pm 18:53 Sunny 85 29.4 71 21.7 63 63 WSW 3 6 30.01 1016 10 16 0.00 0.00
7:53 pm 19:53 Sunny 83 28.3 73 22.8 72 72 SSW 5 7 30.01 1016 10 16 0.00 0.00
8:53 pm 20:53 Sunny 82 27.8 72 22.2 72 72 SSW 3 6 30.01 1016 10 16 0.00 0.00
9:53 pm 21:53 Mostly Clear 80 26.7 73 22.8 79 79 WSW 3 6 30.01 1016 10 16 0.00 0.00
10:53 pm 22:53 Mostly Clear 78 25.6 71 21.7 79 79 SSW 8 13 30.02 1017 10 16 0.00 0.00
11:53 pm 23:53 Partly Cloudy 77 25 71 21.7 82 82 S 3 6 30.02 1017 10 16 0.00 0.00

Powered by AerisWeather